1534543200.47,674,21.44,74474.5,5.15,-15.29,-15.57,0,*70
1534543201.68,675,21.44,74474.5,5.15,-15.21,-15.63,0,*7E
1534543202.87,676,21.44,74476.3,5.15,-15.29,-15.63,0,*75
1534543204.11,677,21.44,74472.8,5.17,-15.25,-15.57,0,*7D
1534543205.32,678,21.44,74476.0,5.17,-15.29,-15.63,0,*79
1534543206.54,679,21.44,74478.5,5.19,-15.29,-15.57,0,*71
1534543207.73,680,21.44,74476.8,5.15,-15.29,-15.67,0,*78
1534543208.94,681,21.44,74478.3,5.19,-15.25,-15.57,0,*7A
1534543210.15,682,21.44,74478.5,5.17,-15.11,-15.53,0,*74
1534543211.4,683,21.44,74474.8,5.17,-15.15,-15.43,0,*70
1534543212.61,684,21.44,74478.0,5.19,-15.15,-15.57,0,*7C
1534543213.83,685,21.44,74476.3,5.15,-15.15,-15.43,0,*74
1534543215.07,686,21.44,74476.5,5.17,-15.11,-15.39,0,*7C
1534543216.29,687,21.44,74474.5,5.15,-15.15,-15.43,0,*76
1534543217.52,688,21.44,74480.8,5.17,-15.01,-15.29,0,*72
1534543218.76,689,21.44,74476.3,5.15,-15.01,-15.35,0,*7C
1534543219.99,690,21.44,74474.8,5.17,-15.11,-15.39,0,*7B
1534543221.24,691,21.44,74474.0,5.17,-15.15,-15.43,0,*73
1534543222.47,692,21.44,74478.3,5.17,-15.11,-15.39,0,*79
1534543223.73,693,21.44,74472.3,5.17,-15.01,-15.39,0,*79
1534543224.98,694,21.44,74474.8,5.17,-15.15,-15.39,0,*7B
1534543226.21,695,21.44,74468.3,5.17,-15.11,-15.39,0,*7E
1534543227.43,696,21.44,74470.3,5.19,-14.97,-15.29,0,*7D
1534543228.64,697,21.44,74472.0,5.19,-14.97,-15.25,0,*70
1534543229.88,698,21.44,74474.8,5.17,-15.01,-15.29,0,*73
1534543231.12,699,21.44,74478.8,5.19,-15.01,-15.39,0,*7D
1534543232.36,700,21.44,74478.0,5.17,-15.11,-15.39,0,*73
1534543233.59,701,21.44,74474.0,5.21,-15.11,-15.35,0,*7B
1534543234.8,702,21.44,74470.8,5.19,-15.15,-15.43,0,*76
1534543235.99,703,21.44,74468.5,5.19,-15.25,-15.63,0,*76
1534543237.21,704,21.44,74470.3,5.19,-15.29,-15.57,0,*7A
1534543238.41,705,21.44,74474.3,5.19,-15.15,-15.53,0,*70
1534543239.62,706,21.44,74472.0,5.19,-15.39,-15.63,0,*7E
1534543240.81,707,21.44,74472.0,5.15,-15.29,-15.63,0,*72
1534543242.05,708,21.44,74474.3,5.17,-15.25,-15.57,0,*74
1534543243.27,709,21.44,74476.3,5.19,-15.29,-15.57,0,*77
1534543244.51,710,21.44,74476.3,5.17,-15.11,-15.39,0,*72
1534543245.73,711,21.44,74478.5,5.17,-14.89,-15.25,0,*7E
1534543246.94,712,21.44,74476.8,5.17,-14.89,-15.15,0,*7E
1534543248.18,713,21.44,74476.8,5.17,-15.01,-15.25,0,*7D
1534543249.42,714,21.44,74474.0,5.17,-14.83,-15.11,0,*76
1534543250.66,715,21.44,74474.3,5.17,-14.83,-15.15,0,*73
1534543251.87,716,21.44,74472.8,5.19,-15.01,-15.29,0,*7A
1534543253.09,717,21.44,74474.5,5.19,-14.97,-15.29,0,*75
1534543254.3,718,21.44,74476.8,5.19,-14.97,-15.25,0,*76
1534543255.52,719,21.44,74478.0,5.19,-15.01,-15.25,0,*79
1534543256.74,720,21.44,74476.3,5.19,-15.15,-15.43,0,*76
1534543257.95,721,21.44,74480.3,5.19,-15.11,-15.39,0,*7E
1534543259.17,722,21.44,74478.0,5.19,-15.01,-15.25,0,*71
1534543260.38,723,21.44,74474.8,5.19,-14.97,-15.25,0,*7E
1534543261.59,724,21.44,74476.5,5.19,-14.97,-15.15,0,*7A
1534543262.78,725,21.44,74476.5,5.19,-14.61,-14.89,0,*76
1534543263.99,726,21.44,74478.8,5.19,-14.69,-14.83,0,*77
1534543265.17,727,21.44,74478.5,5.19,-14.69,-14.89,0,*7C
1534543266.41,728,21.44,74474.3,5.21,-14.83,-14.69,0,*72
1534543267.67,729,21.44,74474.8,5.21,-14.55,-14.47,0,*74
1534543268.86,730,21.44,74474.8,5.19,-14.29,-14.37,0,*7B
1534543270.08,731,21.44,74472.5,5.19,-14.29,-14.51,0,*7A
1534543271.3,732,21.44,74474.0,5.19,-14.23,-14.55,0,*77
1534543272.49,733,21.44,74472.8,5.23,-14.19,-14.69,0,*79
1534543273.7,734,21.44,74474.5,5.21,-14.23,-14.69,0,*75
1534543274.94,735,21.44,74478.0,5.23,-14.51,-14.93,0,*76
1534543276.14,736,21.44,74476.0,5.23,-14.69,-15.21,0,*76
1534543277.38,737,21.44,74472.8,5.21,-14.93,-15.25,0,*74
1534543278.61,738,21.44,74474.5,5.21,-14.97,-15.29,0,*73
1534543279.84,739,21.44,74478.5,5.21,-15.11,-15.35,0,*70
1534543281.06,740,21.44,74478.5,5.19,-15.15,-15.43,0,*70
1534543282.28,741,21.44,74474.3,5.19,-15.25,-15.43,0,*72
1534543283.5,742,21.44,74472.0,5.19,-15.25,-15.43,0,*71
1534543284.7,743,21.44,74472.5,5.19,-15.25,-15.29,0,*7C
1534543285.93,744,21.44,74476.5,5.21,-15.25,-15.21,0,*78
1534543287.15,745,21.44,74478.0,5.19,-15.25,-14.97,0,*7E
1534543288.41,746,21.44,74476.0,5.21,-14.93,-14.47,0,*77
1534543289.67,747,21.44,74474.8,5.21,-14.55,-14.05,0,*7A
1534543290.9,748,21.44,74472.0,5.21,-14.33,-13.97,0,*79
1534543292.13,749,21.44,74472.5,5.19,-14.15,-14.01,0,*7F
1534543293.33,750,21.44,74464.5,5.19,-14.15,-14.29,0,*7D
1534543294.55,751,21.44,74466.5,5.19,-14.23,-14.55,0,*72
1534543295.77,752,21.44,74468.8,5.19,-14.15,-14.75,0,*76
1534543296.97,753,21.44,74472.5,5.19,-14.37,-14.89,0,*74
1534543298.23,754,21.44,74468.0,5.21,-14.47,-14.93,0,*74
1534543299.5,755,21.44,74470.5,5.21,-14.47,-15.01,0,*7F
1534543300.69,756,21.44,74470.3,5.19,-14.61,-15.11,0,*72
1534543301.91,757,21.44,74470.8,5.21,-14.69,-15.21,0,*73
1534543303.17,758,21.44,74474.3,5.21,-14.93,-15.35,0,*7C
1534543304.4,759,21.44,74472.8,5.19,-15.01,-15.43,0,*7D
1534543305.64,760,21.44,74476.0,5.19,-15.01,-15.43,0,*77
1534543306.85,761,21.44,74478.0,5.19,-15.11,-15.43,0,*77
1534543308.06,762,21.44,74476.5,5.19,-15.01,-15.25,0,*75
1534543309.3,763,21.44,74474.3,5.21,-14.97,-15.25,0,*71
1534543310.53,764,21.44,74476.3,5.19,-15.01,-15.43,0,*73
1534543311.77,765,21.44,74474.0,5.19,-15.01,-15.43,0,*72
1534543312.99,766,21.44,74474.5,5.19,-15.15,-15.43,0,*74
1534543314.25,767,21.44,74478.0,5.17,-15.01,-15.39,0,*73
1534543315.49,768,21.44,74476.5,5.17,-15.15,-15.39,0,*79
1534543316.71,769,21.44,74474.5,5.17,-15.11,-15.29,0,*7D
1534543317.94,770,21.44,74474.5,5.15,-15.21,-15.43,0,*78
1534543319.16,771,21.44,74478.3,5.15,-15.15,-15.39,0,*73
1534543320.38,772,21.44,74478.3,5.15,-15.21,-15.49,0,*70
1534543321.62,773,21.44,74478.3,5.17,-15.15,-15.43,0,*7E
1534543322.83,774,21.44,74478.8,5.15,-15.15,-15.35,0,*7A
1534543324.05,775,21.44,74476.8,5.15,-15.21,-15.49,0,*77
1534543325.26,776,21.44,74478.0,5.15,-15.21,-15.49,0,*74
1534543326.48,777,21.44,74478.5,5.15,-15.15,-15.43,0,*78
1534543327.7,778,21.44,74478.8,5.15,-15.15,-15.43,0,*77
1534543328.91,779,21.44,74478.0,5.15,-15.11,-15.39,0,*7F
1534543330.13,780,21.44,74474.8,5.17,-15.11,-15.29,0,*7A
1534543331.34,781,21.44,74476.3,5.17,-15.11,-15.25,0,*77
1534543332.54,782,21.44,74478.0,5.15,-15.07,-15.29,0,*7D
1534543333.73,783,21.44,74478.5,5.15,-15.07,-15.29,0,*7C
1534543334.94,784,21.44,74472.8,5.17,-14.89,-15.15,0,*71
1534543336.21,785,21.44,74474.5,5.17,-14.83,-14.97,0,*71
1534543337.47,786,21.44,74476.8,5.17,-14.75,-15.01,0,*75
1534543338.69,787,21.44,74476.8,5.15,-14.83,-15.15,0,*7A
1534543339.9,788,21.44,74474.0,5.15,-14.93,-15.15,0,*74
1534543341.11,789,21.44,74476.5,5.17,-14.89,-15.15,0,*7C
1534543342.36,790,21.44,74478.5,5.17,-14.83,-15.11,0,*7A
1534543343.57,791,21.44,74476.5,5.15,-14.75,-14.89,0,*70
1534543344.82,792,21.44,74476.0,5.19,-14.55,-14.83,0,*77
1534543346.08,793,21.44,74478.3,5.21,-14.51,-14.79,0,*7C
1534543347.35,794,21.44,74478.8,5.21,-14.51,-14.79,0,*7B
1534543348.59,795,21.44,74476.8,5.19,-14.55,-14.75,0,*79
1534543349.8,796,21.44,74476.3,5.19,-14.61,-14.83,0,*74
1534543351.04,797,21.44,74478.0,5.19,-14.55,-14.75,0,*7B
1534543352.28,798,21.44,74478.8,5.19,-14.55,-14.75,0,*74
1534543353.54,799,21.44,74478.3,5.21,-14.55,-14.79,0,*72
1534543354.76,800,21.44,74478.0,5.19,-14.61,-14.83,0,*74
1534543355.94,801,21.44,74476.0,5.19,-14.69,-14.89,0,*77
1534543357.16,802,21.44,74476.8,5.19,-14.75,-14.89,0,*79
1534543358.36,803,21.44,74478.8,5.23,-14.69,-14.83,0,*76
1534543359.63,804,21.44,74474.8,5.21,-14.55,-14.83,0,*7C
1534543360.84,805,21.44,74478.3,5.19,-14.61,-14.83,0,*71
1534543362.05,806,21.44,74474.8,5.23,-14.51,-14.69,0,*7C
1534543363.29,807,21.44,74474.3,5.21,-14.51,-14.69,0,*7F
1534543364.53,808,21.44,74478.0,5.21,-14.37,-14.47,0,*7C
1534543365.77,809,21.44,74478.0,5.21,-14.37,-14.51,0,*7A
1534543367.01,810,21.44,74474.3,5.21,-14.37,-14.47,0,*75
1534543368.28,811,21.44,74476.0,5.21,-14.47,-14.47,0,*73
1534543369.55,812,21.44,74478.0,5.21,-14.47,-14.51,0,*77
1534543370.79,813,21.44,74476.5,5.23,-14.51,-14.47,0,*74
1534543372.04,814,21.44,74478.8,5.23,-14.47,-14.55,0,*77
1534543373.28,815,21.44,74478.8,5.23,-14.47,-14.55,0,*76
1534543374.53,816,21.44,74478.8,5.23,-14.47,-14.47,0,*76
1534543375.78,817,21.44,74480.0,5.23,-14.47,-14.51,0,*70
1534543376.99,818,21.44,74480.5,5.23,-14.37,-14.47,0,*7F
1534543378.21,819,21.44,74480.0,5.23,-14.33,-14.47,0,*7A
1534543379.46,820,21.44,74478.5,5.23,-14.47,-14.47,0,*73
1534543380.67,821,21.44,74476.5,5.25,-14.33,-14.43,0,*73
1534543381.89,822,21.44,74476.3,5.25,-14.47,-14.65,0,*77
1534543383.11,823,21.44,74476.0,5.25,-14.43,-14.65,0,*72
1534543384.36,824,21.44,74482.3,5.23,-14.47,-14.55,0,*74
1534543385.57,825,21.44,74482.3,5.23,-14.55,-14.69,0,*79
1534543386.74,826,21.44,74482.8,5.23,-14.65,-14.69,0,*79
1534543387.95,827,21.44,74482.0,5.23,-14.55,-14.69,0,*7B
1534543389.2,828,21.44,74478.8,5.25,-14.51,-14.75,0,*7B
1534543390.41,829,21.44,74480.5,5.25,-14.61,-14.79,0,*75
1534543391.65,830,21.44,74476.3,5.23,-14.79,-14.83,0,*77
1534543392.88,831,21.44,74478.5,5.23,-14.79,-14.93,0,*77
1534543394.11,832,21.44,74478.0,5.23,-14.79,-14.93,0,*74
1534543395.35,833,21.44,74480.3,5.23,-14.83,-14.93,0,*70
1534543396.59,834,21.44,74480.3,5.23,-14.79,-14.93,0,*72
1534543397.81,835,21.44,74482.3,5.21,-14.79,-14.69,0,*74
1534543399.06,836,21.44,74480.3,5.23,-14.51,-14.47,0,*73
1534543400.3,837,21.44,74482.3,5.21,-14.33,-14.47,0,*74
1534543401.53,838,21.44,74480.5,5.21,-14.33,-14.51,0,*7C
1534543402.74,839,21.44,74480.0,5.21,-14.37,-14.69,0,*72
1534543404.0,840,21.44,74480.5,5.21,-14.55,-14.83,0,*7C
1534543405.27,841,21.44,74480.3,5.21,-14.55,-14.79,0,*78
1534543406.5,842,21.44,74478.3,5.21,-14.65,-14.79,0,*78
1534543407.71,843,21.44,74480.0,5.19,-14.75,-14.89,0,*7C
1534543408.95,844,21.44,74480.5,5.23,-14.55,-14.83,0,*7A
1534543410.17,845,21.44,74480.8,5.19,-14.89,-14.97,0,*76
1534543411.4,846,21.44,74476.5,5.19,-14.97,-15.01,0,*74
1534543412.61,847,21.44,74476.0,5.19,-15.01,-15.11,0,*7A
1534543413.81,848,21.44,74476.5,5.19,-14.97,-15.11,0,*7B
1534543415.06,849,21.44,74476.3,5.19,-14.79,-14.97,0,*75
1534543416.3,850,21.44,74480.3,5.19,-14.83,-14.97,0,*78
1534543417.54,851,21.44,74480.8,5.17,-14.83,-14.89,0,*78
1534543418.79,852,21.44,74482.3,5.17,-14.83,-14.89,0,*7B
1534543420.03,853,21.44,74478.0,5.15,-14.79,-14.93,0,*76
1534543421.27,854,21.44,74478.0,5.17,-14.83,-14.89,0,*7D
1534543422.51,855,21.44,74480.0,5.17,-14.75,-14.89,0,*75
1534543423.75,856,21.44,74480.0,5.17,-14.83,-14.89,0,*7F
1534543425.02,857,21.44,74478.8,5.17,-14.83,-14.83,0,*74
1534543426.25,858,21.44,74482.5,5.17,-14.69,-14.55,0,*74
1534543427.5,859,21.44,74480.0,5.15,-14.47,-14.47,0,*78
1534543428.72,860,21.44,74484.0,5.17,-14.37,-14.61,0,*73
1534543429.94,861,21.44,74478.5,5.15,-14.55,-14.89,0,*72
1534543431.2,862,21.44,74480.3,5.17,-14.51,-14.43,0,*71
1534543432.43,863,21.44,74480.3,5.15,-14.55,-14.43,0,*76
1534543433.65,864,21.44,74482.5,5.17,-14.37,-14.29,0,*7B
1534543434.86,865,21.44,74480.5,5.17,-14.29,-14.29,0,*75
1534543436.08,866,21.44,74480.5,5.17,-14.37,-14.37,0,*76
1534543437.29,867,21.44,74478.8,5.17,-14.37,-14.29,0,*78
1534543438.5,868,21.44,74476.5,5.17,-14.29,-14.23,0,*72
1534543439.7,869,21.44,74476.0,5.15,-14.15,-14.19,0,*77
1534543440.92,870,21.44,74476.5,5.17,-14.23,-14.37,0,*74
1534543442.14,871,21.44,74478.8,5.15,-14.55,-14.65,0,*71
1534543443.41,872,21.44,74478.0,5.17,-14.51,-14.83,0,*7C
1534543444.64,873,21.44,74480.8,5.15,-14.79,-14.93,0,*74
1534543445.88,874,21.44,74478.5,5.17,-14.75,-14.89,0,*76
1534543447.12,875,21.44,74478.0,5.15,-14.75,-14.93,0,*7E
1534543448.36,876,21.44,74480.0,5.17,-14.55,-14.61,0,*70
1534543449.55,877,21.44,74480.8,5.15,-14.61,-14.65,0,*70
1534543450.76,878,21.44,74478.5,5.15,-14.61,-14.79,0,*72
1534543452.0,879,21.44,74480.5,5.17,-14.55,-14.61,0,*7F
1534543453.21,880,21.44,74482.3,5.15,-14.65,-14.75,0,*7D
1534543454.47,881,21.44,74480.8,5.17,-14.55,-14.75,0,*7D
1534543455.68,882,21.44,74482.3,5.15,-14.65,-14.79,0,*73
1534543456.92,883,21.44,74482.5,5.17,-14.61,-14.79,0,*74
1534543458.16,884,21.44,74476.8,5.17,-14.55,-14.61,0,*7D
1534543459.42,885,21.44,74478.8,5.17,-14.55,-14.75,0,*79
1534543460.61,886,21.44,74476.5,5.15,-14.65,-14.65,0,*7A
1534543461.85,887,21.44,74478.8,5.17,-14.55,-14.61,0,*7E
1534543463.04,888,21.44,74480.8,5.15,-14.61,-14.65,0,*70
1534543464.28,889,21.44,74482.3,5.17,-14.55,-14.61,0,*70
1534543465.47,890,21.44,74480.3,5.15,-14.61,-14.61,0,*7D
1534543466.66,891,21.44,74480.0,5.15,-14.61,-14.61,0,*7C
1534543467.85,892,21.44,74484.3,5.15,-14.61,-14.65,0,*7B
1534543469.04,893,21.44,74480.3,5.15,-14.61,-14.65,0,*7A
1534543470.22,894,21.44,74480.3,5.15,-14.61,-14.61,0,*79
1534543471.49,895,21.44,74484.5,5.17,-14.51,-14.55,0,*7E
1534543472.7,896,21.44,74482.8,5.15,-14.61,-14.55,0,*7C
1534543473.92,897,21.44,74480.0,5.17,-14.37,-14.37,0,*78
1534543475.15,898,21.44,74478.8,5.17,-14.37,-14.43,0,*74
1534543476.37,899,21.44,74480.0,5.15,-14.55,-14.65,0,*77
1534543477.6,900,21.44,74480.8,5.17,-14.69,-14.83,0,*73
1534543478.79,901,21.44,74480.0,5.15,-14.65,-14.61,0,*70
1534543480.02,902,21.44,74480.0,5.17,-14.61,-14.75,0,*70
1534543481.23,903,21.44,74480.3,5.15,-14.65,-14.93,0,*7F
1534543482.47,904,21.44,74480.8,5.15,-14.75,-14.79,0,*7D
1534543483.66,905,21.44,74482.5,5.15,-14.65,-14.89,0,*72
1534543484.92,906,21.44,74480.8,5.17,-14.55,-14.75,0,*73
1534543486.13,907,21.44,74480.3,5.15,-14.61,-14.79,0,*7B
1534543487.35,908,21.44,74482.0,5.15,-14.65,-14.79,0,*70
1534543488.56,909,21.44,74480.3,5.15,-14.61,-14.79,0,*75
1534543489.8,910,21.44,74482.3,5.15,-14.75,-14.79,0,*78
1534543491.01,911,21.44,74480.3,5.15,-14.79,-14.89,0,*7A
1534543492.2,912,21.44,74484.0,5.15,-14.65,-14.89,0,*74
1534543493.43,913,21.44,74482.3,5.13,-14.65,-14.79,0,*7C
1534543494.64,914,21.44,74480.0,5.13,-14.61,-14.65,0,*72
1534543495.88,915,21.44,74482.0,5.13,-14.61,-14.79,0,*7E
1534543497.06,916,21.44,74482.0,5.11,-14.65,-14.69,0,*7A
1534543498.29,917,21.44,74486.8,5.13,-14.61,-14.79,0,*7C
1534543499.53,918,21.44,74484.8,5.13,-14.61,-14.55,0,*7D
1534543500.79,919,21.44,74480.0,5.13,-14.47,-14.55,0,*78
1534543502.04,920,21.44,74480.0,5.15,-14.55,-14.55,0,*77
1534543503.3,921,21.44,74482.5,5.13,-14.47,-14.43,0,*74
1534543504.54,922,21.44,74482.0,5.13,-14.47,-14.33,0,*70
1534543505.81,923,21.44,74482.5,5.13,-14.47,-14.47,0,*72
1534543507.08,924,21.44,74484.0,5.13,-14.47,-14.47,0,*75
1534543508.35,925,21.44,74482.5,5.13,-14.47,-14.55,0,*77
1534543509.56,926,21.44,74482.5,5.13,-14.33,-14.33,0,*77
1534543510.79,927,21.44,74476.8,5.13,-14.29,-14.43,0,*7A
1534543512.04,928,21.44,74478.8,5.13,-14.43,-14.43,0,*79
1534543513.25,929,21.44,74478.8,5.13,-14.29,-14.29,0,*78
1534543514.46,930,21.44,74478.0,5.13,-14.33,-14.33,0,*70
1534543515.7,931,21.44,74476.3,5.13,-14.43,-14.33,0,*76
1534543516.94,932,21.44,74476.0,5.15,-14.55,-14.47,0,*77
1534543518.19,933,21.44,74482.5,5.15,-14.55,-14.47,0,*76
1534543519.43,934,21.44,74476.5,5.15,-14.55,-14.47,0,*71
1534543520.65,935,21.44,74482.3,5.15,-14.47,-14.29,0,*7B
1534543521.89,936,21.44,74484.0,5.13,-14.29,-14.47,0,*7E
1534543523.11,937,21.44,74480.8,5.13,-14.33,-14.65,0,*74
1534543524.35,938,21.38,74476.3,5.13,-14.43,-14.65,0,*7C
1534543525.59,939,21.44,74480.8,5.13,-14.47,-14.61,0,*7D
1534543526.82,940,21.44,74480.0,5.13,-14.65,-14.79,0,*7A
1534543528.06,941,21.44,74480.0,5.13,-14.75,-14.89,0,*75
1534543529.27,942,21.44,74480.0,5.13,-14.61,-14.65,0,*71
1534543530.5,943,21.44,74482.3,5.13,-14.65,-14.79,0,*79
1534543531.73,944,21.44,74482.5,5.13,-14.75,-14.89,0,*70
1534543532.97,945,21.44,74482.5,5.11,-14.79,-14.83,0,*75
1534543534.21,946,21.44,74482.3,5.11,-14.83,-14.83,0,*73
1534543535.42,947,21.44,74480.3,5.11,-14.65,-14.83,0,*7A
1534543536.63,948,21.44,74480.5,5.11,-14.69,-14.83,0,*79
1534543537.84,949,21.44,74480.8,5.13,-14.61,-14.65,0,*7A
1534543539.03,950,21.44,74480.3,5.11,-14.61,-14.23,0,*72
1534543540.21,951,21.44,74482.0,5.11,-14.37,-13.93,0,*7C
1534543541.45,952,21.44,74478.0,5.09,-14.23,-13.83,0,*72
1534543542.63,953,21.44,74478.5,5.11,-13.93,-13.73,0,*79
1534543543.83,954,21.44,74476.8,5.13,-13.73,-13.69,0,*79
1534543545.04,955,21.44,74480.8,5.11,-13.65,-14.05,0,*70
1534543546.25,956,21.44,74478.5,5.13,-13.73,-14.19,0,*7B
1534543547.5,957,21.44,74480.8,5.11,-14.05,-14.47,0,*75
1534543548.72,958,21.44,74480.8,5.11,-14.11,-14.47,0,*7F
1534543549.91,959,21.44,74480.3,5.11,-14.33,-14.65,0,*7E
1534543551.13,960,21.44,74482.3,5.11,-14.47,-14.61,0,*73
1534543552.37,961,21.44,74480.8,5.13,-14.55,-14.65,0,*77
1534543553.56,962,21.44,74480.0,5.11,-14.61,-14.61,0,*75
1534543554.74,963,21.44,74480.0,5.11,-14.61,-14.65,0,*70
1534543555.95,964,21.44,74482.0,5.09,-14.65,-14.89,0,*78
1534543557.16,965,21.44,74482.0,5.09,-14.69,-14.89,0,*75
1534543558.37,966,21.44,74478.5,5.07,-14.69,-14.97,0,*77
1534543559.6,967,21.44,74480.3,5.09,-14.69,-14.75,0,*74
1534543560.8,968,21.44,74480.0,5.09,-14.69,-14.69,0,*76
1534543562.03,969,21.44,74480.3,5.09,-14.69,-14.75,0,*7A
1534543563.26,970,21.44,74482.0,5.09,-14.69,-14.75,0,*72
1534543564.47,971,21.38,74480.0,5.07,-14.55,-14.65,0,*73
1534543565.66,972,21.44,74480.8,5.07,-14.65,-14.65,0,*73
1534543566.9,973,21.44,74480.5,5.09,-14.65,-14.55,0,*7F
1534543568.1,974,21.44,74480.8,5.09,-14.69,-14.69,0,*7B
1534543569.3,975,21.44,74482.3,5.09,-14.69,-14.69,0,*7A
1534543570.54,976,21.44,74480.3,5.09,-14.75,-14.65,0,*78
1534543571.8,977,21.44,74480.8,5.09,-14.75,-14.75,0,*78
1534543573.0,978,21.44,74480.8,5.07,-14.69,-14.75,0,*74
1534543574.24,979,21.38,74478.3,5.07,-14.83,-14.75,0,*71
1534543575.42,980,21.44,74480.5,5.07,-14.69,-14.69,0,*7E
1534543576.63,981,21.44,74480.3,5.07,-14.69,-14.55,0,*70
1534543577.85,982,21.44,74482.0,5.09,-14.69,-14.55,0,*7D
1534543579.09,983,21.38,74476.8,5.09,-14.65,-14.55,0,*70
1534543580.33,984,21.44,74480.5,5.07,-14.55,-14.55,0,*7A
1534543581.57,985,21.44,74482.5,5.07,-14.43,-14.51,0,*78
1534543582.79,986,21.44,74484.5,5.07,-14.55,-14.65,0,*7B
1534543584.01,987,21.44,74480.0,5.07,-14.55,-14.65,0,*7A
1534543585.28,988,21.44,74482.8,5.09,-14.43,-14.55,0,*7F
1534543586.52,989,21.44,74482.5,5.07,-14.43,-14.51,0,*74
1534543587.78,990,21.44,74482.0,5.09,-14.43,-14.43,0,*71
1534543588.99,991,21.44,74482.5,5.07,-14.65,-14.51,0,*79
1534543590.2,992,21.44,74482.0,5.07,-14.65,-14.51,0,*7A
1534543591.43,993,21.44,74480.0,5.07,-14.55,-14.43,0,*7B
1534543592.69,994,21.38,74480.3,5.09,-14.43,-14.43,0,*75
1534543593.9,995,21.44,74480.3,5.07,-14.65,-14.55,0,*79
1534543595.15,996,21.38,74478.5,5.07,-14.51,-14.55,0,*7D
1534543596.39,997,21.44,74480.8,5.07,-14.51,-14.55,0,*7C
1534543597.6,998,21.44,74480.3,5.03,-14.69,-14.75,0,*7E
1534543598.78,999,21.44,74482.0,5.07,-14.65,-14.65,0,*76
1534543600.03,1000,21.44,74480.3,5.07,-14.55,-14.51,0,*4A
1534543601.25,1001,21.44,74484.0,5.07,-14.43,-14.37,0,*4C
1534543602.51,1002,21.44,74482.3,5.03,-14.55,-14.47,0,*4B
1534543603.79,1003,21.44,74482.8,5.01,-14.47,-14.47,0,*4B
1534543604.98,1004,21.44,74480.8,5.03,-14.61,-14.61,0,*4E
1534543606.2,1005,21.44,74482.0,5.03,-14.61,-14.55,0,*48
1534543607.45,1006,21.44,74482.5,5.03,-14.55,-14.55,0,*4C
1534543608.72,1007,21.44,74482.5,5.01,-14.55,-14.47,0,*4C
1534543609.96,1008,21.44,74480.3,5.03,-14.55,-14.43,0,*45
1534543611.21,1009,21.44,74484.5,5.03,-14.55,-14.47,0,*40
1534543612.47,1010,21.44,74480.8,5.03,-14.55,-14.47,0,*48
1534543613.72,1011,21.44,74480.8,5.03,-14.47,-14.47,0,*4A
1534543614.97,1012,21.44,74482.0,5.03,-14.55,-14.43,0,*4E
1534543616.19,1013,21.44,74480.3,5.03,-14.43,-14.33,0,*4F
1534543617.44,1014,21.44,74484.0,5.03,-14.55,-14.47,0,*4C
1534543618.7,1015,21.44,74484.8,5.01,-14.43,-14.43,0,*4C
1534543619.95,1016,21.44,74482.8,5.03,-14.47,-14.43,0,*49
1534543621.17,1017,21.44,74480.0,5.03,-14.43,-14.33,0,*4B
1534543622.37,1018,21.44,74480.8,5.03,-14.33,-14.29,0,*48
1534543623.58,1019,21.44,74484.0,5.01,-14.33,-14.33,0,*40
1534543624.82,1020,21.44,74482.8,5.03,-14.43,-14.43,0,*48
1534543626.02,1021,21.44,74482.8,5.07,-14.37,-14.23,0,*48
1534543627.22,1022,21.44,74480.5,5.07,-14.29,-14.23,0,*44
1534543628.41,1023,21.44,74486.0,5.03,-14.33,-14.33,0,*4B
1534543629.66,1024,21.44,74484.5,5.03,-14.55,-14.55,0,*4C
1534543630.91,1025,21.44,74484.3,5.03,-14.55,-14.47,0,*4E
1534543632.17,1026,21.44,74482.5,5.03,-14.47,-14.47,0,*4E
1534543633.36,1027,21.38,74482.0,5.03,-14.33,-14.29,0,*44
1534543634.59,1028,21.44,74482.5,5.03,-14.43,-14.19,0,*4F
1534543635.78,1029,21.44,74480.8,5.03,-14.33,-14.19,0,*49
1534543636.97,1030,21.44,74482.8,5.07,-14.29,-14.23,0,*47
1534543638.2,1031,21.44,74480.3,5.03,-14.47,-14.33,0,*4B
1534543639.4,1032,21.38,74480.8,5.03,-14.33,-14.29,0,*40
1534543640.59,1033,21.44,74480.3,5.03,-14.33,-14.29,0,*41
1534543641.82,1034,21.44,74480.8,5.03,-14.15,-14.05,0,*4C
1534543643.02,1035,21.44,74486.3,5.03,-14.19,-14.19,0,*4C
1534543644.22,1036,21.44,74486.5,5.07,-14.23,-14.11,0,*4A
1534543645.41,1037,21.44,74484.0,5.07,-14.29,-14.23,0,*40
1534543646.61,1038,21.44,74480.5,5.07,-14.37,-14.23,0,*40
1534543647.81,1039,21.44,74482.5,5.07,-14.29,-14.23,0,*4E
1534543649.0,1040,21.44,74484.3,5.07,-14.29,-14.29,0,*4A
1534543650.24,1041,21.44,74486.0,5.07,-14.55,-14.43,0,*4C
1534543651.47,1042,21.38,74480.8,5.03,-14.61,-14.47,0,*48
1534543652.69,1043,21.44,74486.0,5.03,-14.61,-14.47,0,*49
1534543653.9,1044,21.44,74482.8,5.03,-14.61,-14.43,0,*4A
1534543655.15,1045,21.44,74484.8,5.03,-14.47,-14.43,0,*4F
1534543656.39,1046,21.44,74484.3,5.03,-14.55,-14.43,0,*4F
1534543657.61,1047,21.44,74486.8,5.03,-14.61,-14.47,0,*4D
1534543658.83,1048,21.44,74482.5,5.03,-14.43,-14.29,0,*4A
1534543660.03,1049,21.44,74484.3,5.03,-14.33,-14.29,0,*4C
1534543661.22,1050,21.44,74486.0,5.03,-14.29,-14.19,0,*4C
1534543662.42,1051,21.44,74486.8,5.03,-14.19,-14.19,0,*4E
1534543663.62,1052,21.44,74482.8,5.03,-14.29,-14.15,0,*42
1534543664.84,1053,21.44,74486.8,5.01,-14.29,-14.15,0,*41
1534543666.04,1054,21.44,74482.5,5.03,-14.29,-14.15,0,*44
1534543667.24,1055,21.44,74484.5,5.03,-14.19,-14.19,0,*4A
1534543668.49,1056,21.44,74486.0,5.01,-14.05,-14.15,0,*4A
1534543669.74,1057,21.38,74482.5,5.01,-14.15,-14.05,0,*4B
1534543670.97,1058,21.44,74484.5,5.03,-14.15,-14.01,0,*42
1534543672.23,1059,21.44,74482.5,5.03,-14.05,-14.01,0,*42
1534543673.45,1060,21.44,74480.0,5.03,-14.19,-14.05,0,*41
1534543674.7,1061,21.44,74486.3,5.07,-13.87,-13.97,0,*48
1534543675.92,1062,21.44,74484.5,5.03,-14.01,-13.93,0,*42
1534543677.15,1063,21.44,74482.8,5.03,-14.15,-14.05,0,*4E
1534543678.35,1064,21.44,74484.3,5.03,-14.19,-14.15,0,*44
1534543679.58,1065,21.38,74482.0,5.03,-14.15,-14.05,0,*48
1534543680.78,1066,21.44,74482.5,5.03,-14.19,-14.19,0,*4A
1534543681.97,1067,21.38,74480.5,5.03,-14.29,-14.19,0,*48
1534543683.2,1068,21.44,74486.5,5.03,-14.47,-14.29,0,*4C
1534543684.42,1069,21.44,74484.3,5.03,-14.43,-14.29,0,*49
1534543685.65,1070,21.44,74486.8,5.03,-14.43,-14.29,0,*41
1534543686.84,1071,21.44,74486.3,5.03,-14.33,-14.29,0,*47
1534543688.07,1072,21.38,74482.0,5.03,-14.15,-14.01,0,*4A
1534543689.27,1073,21.38,74482.3,5.03,-14.29,-14.15,0,*41
1534543690.49,1074,21.44,74486.3,5.03,-14.29,-14.05,0,*47
1534543691.72,1075,21.44,74486.3,5.03,-14.15,-14.05,0,*49
1534543692.93,1076,21.44,74486.8,5.03,-14.15,-14.15,0,*4B
1534543694.12,1077,21.44,74482.0,5.03,-14.19,-14.19,0,*4A
1534543695.32,1078,21.44,74482.0,5.03,-14.29,-14.19,0,*46
1534543696.54,1079,21.44,74482.8,5.01,-14.33,-14.19,0,*4E
1534543697.73,1080,21.44,74480.3,5.03,-14.33,-14.19,0,*4A
1534543698.93,1081,21.44,74484.8,5.07,-14.15,-14.11,0,*43
1534543700.14,1082,21.44,74482.0,5.01,-14.33,-14.19,0,*4A
1534543701.37,1083,21.44,74484.3,5.03,-14.47,-14.33,0,*42
1534543702.57,1084,21.44,74484.3,5.03,-14.33,-14.33,0,*46
1534543703.77,1085,21.44,74484.5,5.03,-14.19,-14.19,0,*47
1534543705.0,1086,21.44,74482.8,5.01,-14.15,-14.15,0,*46
1534543706.25,1087,21.44,74484.8,5.03,-14.05,-14.05,0,*45
1534543707.48,1088,21.44,74484.8,5.03,-14.15,-14.05,0,*4B
1534543708.71,1089,21.44,74482.0,5.03,-14.15,-14.05,0,*4A
1534543709.94,1090,21.44,74480.8,5.03,-14.15,-14.05,0,*42
1534543711.19,1091,21.38,74476.8,5.03,-14.05,-14.01,0,*46
1534543712.39,1092,21.38,74480.8,5.03,-14.15,-14.15,0,*41
1534543713.6,1093,21.44,74486.0,5.03,-14.19,-14.15,0,*4C